Wind_Speed
52 50 49 47 45 44 40 37 37 37 34 32 28 26 25 26 28 26 21 17 16 16 15 15 14 13 12 12 12 12 13 13 14 14 15 15 15 16 16 16 16 17 17 17 17 18 18 18 18
54 53 52 51 49 46 42 39 39 38 36 31 29 28 26 28 27 23 20 18 18 18 16 15 15 14 13 13 13 13 13 14 14 14 15 15 15 15 16 16 16 17 17 17 17 18 17 17 17
55 54 54 54 53 49 42 39 40 40 37 33 32 30 31 33 27 23 22 21 20 19 18 17 16 15 14 14 14 14 14 14 14 14 14 15 15 15 16 16 17 17 17 17 18 17 18 18 18
54 56 57 57 55 50 44 43 43 42 38 35 34 33 35 31 26 24 25 23 22 21 19 18 17 16 15 15 15 14 14 14 15 15 15 15 16 16 17 17 17 18 18 18 18 18 18 19 18
53 55 57 58 56 51 47 45 46 43 40 37 36 36 36 32 30 28 27 25 24 22 21 20 19 18 16 16 15 15 15 15 16 16 16 17 17 17 18 19 19 19 19 19 19 19 19 19 19
53 53 56 58 56 52 49 47 46 45 42 40 38 38 37 34 32 30 29 28 26 23 23 22 21 20 18 17 17 16 16 17 17 17 18 18 18 19 19 20 20 20 19 19 18 18 18 18 18
54 53 54 54 54 52 50 48 47 46 43 41 40 40 40 36 34 32 31 30 27 25 25 24 23 22 21 20 19 18 18 18 19 19 19 19 20 20 20 20 20 20 19 19 18 18 18 18 18
53 53 53 53 53 52 49 48 48 47 43 42 42 42 43 38 36 34 32 31 29 27 27 26 24 24 23 22 21 20 20 20 20 21 21 20 21 21 21 21 20 20 19 19 18 18 18 17 17
54 55 54 50 49 49 47 48 48 47 44 44 44 45 44 39 36 35 34 32 30 30 29 28 26 25 25 24 23 22 22 22 22 22 22 21 21 21 21 21 21 20 20 19 19 18 18 17 17
54 55 51 47 45 46 47 48 48 47 45 45 45 45 42 38 37 36 35 33 32 31 30 29 28 27 26 25 25 24 24 23 23 23 23 22 22 22 22 21 21 21 20 20 19 19 18 17 17
52 51 48 48 49 50 50 48 47 47 45 45 44 44 42 39 38 37 36 35 34 33 32 30 30 29 28 27 27 26 26 25 25 25 24 23 23 23 23 22 22 22 21 21 20 20 19 18 18
51 50 50 50 51 51 50 47 45 45 44 46 47 46 44 41 40 38 37 36 35 34 33 32 31 30 30 29 28 28 28 27 27 26 25 25 24 24 24 23 23 23 23 22 22 21 21 20 20
50 51 52 53 53 51 49 47 45 44 46 49 47 45 43 41 41 40 39 38 36 35 34 33 32 31 31 30 30 30 29 29 28 27 27 26 26 25 25 25 25 25 24 24 24 23 22 22 22
49 51 54 55 53 51 49 48 47 46 47 48 46 45 43 42 42 41 40 39 37 36 35 34 33 32 32 31 31 31 31 30 30 29 28 27 27 27 27 27 26 27 27 26 26 26 25 25 25
49 51 53 55 53 51 49 49 48 47 47 47 45 45 44 43 42 41 40 39 38 37 35 34 34 33 33 32 32 32 31 31 30 30 29 29 29 29 29 29 29 29 29 29 29 29 28 28 28
49 51 52 53 53 52 51 49 47 48 49 47 46 45 45 44 43 41 40 39 38 37 36 35 34 34 33 33 33 32 32 32 31 31 31 31 31 31 31 32 32 32 32 32 32 32 32 31 31
49 50 49 50 51 51 51 49 48 48 49 48 47 45 45 44 43 42 41 39 38 37 36 36 35 34 34 34 34 33 33 33 33 33 33 33 34 34 34 34 35 35 35 35 35 35 35 35 35
45 45 46 47 48 48 49 48 49 48 48 48 48 46 45 44 43 42 41 40 38 38 37 36 36 35 35 35 35 34 34 34 35 35 35 36 36 37 37 37 38 38 38 38 38 39 39 39 39
41 43 45 45 46 46 46 47 48 49 48 48 47 47 47 45 43 42 41 40 38 38 37 37 37 36 36 36 36 35 35 36 37 37 38 38 39 39 39 40 40 41 41 41 41 41 42 42 43
40 41 43 44 45 43 44 45 47 48 48 47 47 47 47 46 44 43 41 40 39 38 38 38 38 38 37 37 37 37 37 37 38 39 39 40 41 42 42 42 42 43 43 44 44 44 45 45 46
38 39 40 42 42 41 41 44 46 46 47 47 47 47 47 46 44 43 42 41 40 39 38 38 38 39 38 38 38 39 39 39 39 40 41 42 43 44 44 44 45 45 46 46 46 47 48 48 49
35 37 38 40 40 39 39 40 43 44 45 46 47 47 46 46 45 43 42 41 41 40 39 39 38 39 39 39 39 40 40 40 41 42 42 43 44 44 45 46 46 47 48 48 49 50 51 52 52
34 35 36 37 38 39 39 39 41 42 42 43 45 46 46 45 45 43 42 41 40 40 39 39 39 39 39 40 40 40 41 41 41 42 43 43 44 45 46 46 47 48 49 50 52 53 54 54 55
31 32 34 35 36 37 36 36 39 40 39 40 41 43 44 44 43 43 42 41 40 39 39 39 39 39 39 40 40 40 41 41 42 42 43 43 44 45 46 47 48 49 51 52 54 55 56 57 58
30 30 32 34 36 35 33 35 37 38 38 38 38 40 41 42 42 42 41 40 39 39 38 38 38 39 39 39 40 40 41 41 41 42 43 43 44 45 46 48 49 50 51 53 55 57 59 60 60
29 29 30 32 33 33 33 34 35 35 35 36 37 38 38 39 40 40 40 39 39 38 38 38 38 38 38 39 39 39 40 40 41 41 42 43 43 44 46 47 49 50 52 54 57 58 60 61 62
29 30 28 28 29 30 32 34 34 34 33 34 35 36 37 38 38 38 38 38 38 38 37 37 37 37 37 37 38 38 38 39 40 41 41 42 43 44 45 47 48 50 52 54 57 59 60 61 62
27 27 27 27 27 28 29 30 31 31 32 33 34 35 36 36 37 37 37 37 37 37 37 36 36 37 37 37 37 37 38 38 39 40 40 41 42 43 44 45 47 50 52 54 55 56 58 60 61
25 26 27 27 27 26 26 28 29 29 30 32 33 34 35 35 36 36 37 36 36 36 36 36 36 36 36 36 36 36 37 37 38 38 38 39 39 40 42 44 46 48 50 51 52 53 54 56 58
23 23 25 27 26 26 26 26 24 25 28 29 31 32 33 34 35 35 36 36 35 35 35 35 35 35 35 35 35 35 35 35 35 35 36 36 38 39 41 42 44 46 46 47 49 49 49 50 50
Wind_Direction
217 216 216 216 215 214 212 212 215 216 216 215 216 219 221 223 223 225 226 227 232 236 238 243 247 251 256 260 263 265 268 270 274 277 281 284 287 290 292 294 296 297 299 300 302 302 302 302 302
218 217 216 217 217 215 212 214 219 219 218 216 217 219 222 229 228 230 231 230 234 238 241 245 248 252 256 260 264 266 269 272 275 278 282 285 287 290 293 295 297 298 300 301 302 303 302 302 303
219 218 218 217 217 216 213 216 221 221 220 217 218 220 222 225 225 228 232 232 235 239 242 246 248 251 254 258 263 266 270 273 277 280 282 285 288 290 293 295 297 298 299 300 301 301 301 300 301
220 220 220 218 217 216 215 217 221 222 220 219 221 223 226 229 229 230 233 234 236 239 243 245 247 249 251 255 260 265 270 273 276 279 282 284 286 289 292 295 297 298 299 300 300 300 300 299 299
220 221 221 219 217 215 216 220 222 223 222 222 223 226 227 228 229 229 232 235 237 239 243 245 246 248 249 251 256 262 267 271 275 279 282 284 287 290 293 295 297 298 300 301 301 300 300 299 298
222 221 222 220 217 215 216 220 225 225 224 224 225 229 230 228 230 232 233 235 237 239 242 244 246 248 249 251 254 259 265 270 276 280 283 286 289 291 294 295 297 299 300 301 301 301 300 299 298
224 222 222 222 219 217 217 219 224 225 226 226 226 230 231 229 230 231 233 235 236 238 241 244 246 249 251 253 256 259 264 270 276 280 283 287 290 293 294 296 297 298 299 300 300 299 300 299 298
225 225 223 221 220 219 218 221 223 224 225 226 227 229 231 229 230 231 233 234 236 237 241 244 246 250 254 257 259 262 266 272 276 280 284 287 290 292 294 296 297 297 298 298 298 297 297 297 297
224 225 223 221 222 220 220 222 221 223 224 225 226 229 231 230 230 231 232 234 235 237 240 245 248 252 256 259 263 266 270 274 277 280 284 286 289 291 292 294 295 295 295 295 295 295 294 294 294
224 226 224 223 224 222 222 222 220 220 221 223 225 228 230 230 231 231 231 232 234 237 240 245 249 254 258 262 266 270 273 276 278 281 283 285 287 289 290 292 292 292 292 292 291 291 291 290 290
224 226 224 224 224 222 222 221 221 220 220 222 223 226 227 226 228 229 230 232 234 238 241 245 250 255 260 264 268 271 274 276 279 281 284 285 286 287 288 289 289 289 289 288 288 287 286 286 287
222 223 223 224 225 224 223 222 221 220 219 220 221 222 224 224 225 227 229 231 234 237 242 246 251 255 260 264 267 271 274 277 279 282 284 285 286 287 287 287 287 287 287 286 285 284 284 283 283
220 221 222 223 224 224 223 221 220 220 219 220 220 222 223 223 225 227 229 231 234 237 241 246 250 255 259 263 267 270 273 276 279 281 283 284 285 286 286 285 286 286 285 284 283 282 281 281 282
219 220 221 223 224 224 223 222 220 220 221 221 220 221 222 222 225 227 229 232 235 238 242 246 250 254 259 262 266 269 272 275 277 280 281 282 284 285 286 285 284 284 284 282 282 281 280 280 280
219 220 221 222 223 224 224 223 221 221 222 223 222 221 222 223 225 228 230 233 236 239 242 246 250 254 258 261 265 268 271 274 276 278 280 281 283 284 285 284 284 283 282 281 280 280 279 279 279
219 220 221 222 223 224 225 223 223 223 223 223 223 223 224 224 226 228 231 234 237 240 243 246 250 254 258 261 265 268 271 273 275 277 279 281 282 283 283 283 283 282 282 281 280 279 278 277 277
218 220 221 222 223 224 225 224 223 225 224 224 224 224 226 227 227 229 232 234 238 241 244 247 250 253 257 261 264 268 271 273 275 277 279 280 281 282 283 283 283 283 282 281 280 279 278 277 277
219 220 222 224 225 225 226 225 224 225 225 225 226 226 227 228 229 231 233 236 239 242 245 248 250 253 257 260 264 267 270 272 274 276 278 280 281 282 283 283 283 282 282 281 279 278 278 278 277
219 220 221 223 225 225 227 226 226 225 225 226 227 228 229 230 231 233 235 237 240 243 246 248 250 253 256 259 262 265 268 270 273 276 278 280 281 281 281 282 282 282 281 280 279 278 278 278 277
217 219 220 223 225 225 226 227 227 227 225 226 228 229 230 231 233 235 237 239 242 244 247 249 251 254 256 259 261 264 267 269 272 275 278 279 280 281 281 281 281 281 281 280 279 278 278 277 277
215 219 220 222 224 226 227 228 228 229 228 227 228 230 232 233 235 237 238 240 243 246 248 250 251 254 256 258 261 264 267 270 272 274 276 277 279 280 281 281 281 281 281 281 280 279 278 278 277
213 217 220 223 223 227 229 230 229 230 230 229 229 231 233 235 237 239 240 242 243 245 248 249 251 253 256 259 262 265 267 270 272 273 275 276 278 279 280 281 281 281 281 281 280 280 279 278 278
213 218 221 224 226 228 228 231 231 230 230 230 231 232 234 236 238 240 242 243 244 246 248 250 252 254 256 259 262 265 268 270 272 273 275 276 277 279 279 280 280 280 281 281 280 280 279 278 278
211 216 221 225 227 228 228 231 233 232 230 230 232 233 234 236 239 242 244 245 245 247 248 250 253 255 257 260 262 265 268 270 272 273 275 276 277 279 280 280 280 280 280 280 280 279 279 278 277
207 212 217 222 227 227 227 230 232 232 230 230 232 233 234 236 239 241 243 245 247 248 250 252 254 256 258 261 263 266 268 270 272 273 275 277 278 280 280 280 281 282 282 282 281 280 279 278 276
207 212 217 223 228 228 228 230 231 233 231 230 232 233 234 236 238 241 243 245 247 249 251 253 255 257 259 261 263 265 268 270 272 274 276 278 279 280 281 281 282 283 284 284 283 282 280 278 276
208 213 217 222 226 229 231 232 232 233 232 231 232 233 234 236 237 240 242 245 247 249 251 253 256 258 259 261 263 266 268 270 273 275 276 278 280 281 283 284 285 285 286 286 285 284 281 279 276
208 213 217 219 222 228 233 234 233 233 233 233 232 233 234 235 237 239 241 244 246 249 251 253 256 258 260 262 264 267 269 271 273 275 277 279 281 283 285 286 287 288 288 288 288 286 283 281 277
211 214 217 220 222 224 230 234 232 233 233 233 232 232 233 235 236 238 241 243 246 248 251 253 256 258 260 263 266 268 270 272 274 277 279 282 284 286 288 289 291 291 291 290 291 289 287 283 280
214 217 218 219 220 223 229 234 233 233 233 234 233 233 234 235 236 238 240 243 246 248 251 253 256 259 262 264 267 269 272 274 277 279 282 284 287 290 292 294 294 295 294 294 293 292 291 288 285
Height
5791 5796 5802 5807 5813 5817 5824 5829 5831 5835 5839 5843 5849 5853 5856 5858 5858 5863 5865 5867 5870 5871 5873 5874 5876 5877 5878 5879 5880 5881 5882 5882 5883 5884 5884 5884 5885 5885 5885 5885 5885 5885 5885 5885 5885 5884 5884 5883 5883
5783 5788 5794 5800 5805 5812 5820 5824 5827 5831 5835 5842 5846 5850 5853 5854 5856 5860 5863 5865 5867 5869 5871 5872 5874 5875 5876 5877 5878 5879 5880 5880 5881 5882 5882 5882 5883 5883 5883 5883 5883 5883 5883 5883 5883 5882 5882 5881 5881
5774 5779 5786 5792 5798 5807 5816 5820 5823 5826 5831 5838 5842 5845 5847 5848 5854 5858 5860 5863 5865 5866 5868 5870 5871 5873 5874 5875 5876 5877 5878 5878 5879 5879 5880 5880 5881 5881 5881 5881 5881 5881 5881 5881 5880 5880 5879 5879 5878
5766 5771 5778 5785 5793 5802 5810 5813 5816 5821 5827 5833 5837 5841 5842 5847 5853 5856 5857 5860 5862 5864 5866 5867 5869 5870 5872 5873 5874 5875 5875 5876 5877 5877 5878 5878 5879 5879 5879 5879 5879 5879 5878 5878 5878 5877 5877 5876 5875
5757 5763 5769 5777 5787 5796 5803 5807 5810 5816 5822 5828 5832 5835 5838 5844 5848 5851 5853 5856 5859 5861 5863 5865 5866 5868 5869 5870 5871 5872 5873 5874 5875 5875 5876 5876 5876 5876 5876 5876 5876 5876 5876 5875 5875 5874 5874 5873 5872
5749 5755 5763 5771 5781 5790 5796 5800 5804 5811 5817 5822 5827 5830 5834 5839 5844 5847 5850 5852 5855 5858 5860 5861 5863 5864 5866 5868 5869 5870 5871 5872 5872 5873 5873 5873 5874 5874 5874 5874 5873 5873 5873 5872 5872 5871 5870 5870 5869
5742 5749 5756 5766 5774 5782 5789 5794 5798 5805 5811 5816 5821 5825 5828 5834 5839 5843 5845 5848 5851 5854 5856 5857 5859 5861 5863 5864 5866 5867 5868 5869 5870 5870 5870 5870 5871 5871 5871 5870 5870 5870 5869 5869 5868 5868 5867 5867 5866
5735 5741 5748 5757 5766 5776 5782 5786 5791 5798 5805 5810 5815 5818 5822 5829 5834 5838 5841 5844 5847 5850 5852 5854 5856 5857 5859 5861 5862 5864 5865 5866 5867 5867 5867 5867 5867 5867 5867 5867 5867 5866 5866 5866 5865 5865 5864 5863 5863
5725 5732 5741 5752 5761 5770 5774 5778 5784 5790 5797 5803 5808 5812 5817 5825 5830 5834 5837 5840 5843 5845 5848 5850 5852 5854 5856 5857 5859 5860 5861 5862 5863 5864 5864 5864 5864 5864 5864 5864 5864 5863 5863 5863 5862 5862 5861 5860 5859
5716 5726 5740 5750 5755 5760 5764 5769 5776 5783 5790 5796 5802 5806 5813 5821 5825 5829 5832 5835 5838 5841 5843 5845 5848 5850 5852 5854 5855 5856 5857 5858 5859 5860 5860 5861 5861 5861 5861 5860 5860 5860 5860 5859 5859 5858 5858 5857 5856
5712 5724 5735 5739 5743 5748 5754 5762 5769 5777 5784 5790 5796 5801 5808 5815 5819 5823 5827 5830 5833 5836 5839 5841 5844 5846 5848 5849 5851 5852 5853 5854 5855 5855 5856 5857 5857 5857 5857 5857 5856 5856 5856 5855 5855 5854 5854 5853 5853
5708 5717 5723 5729 5734 5741 5749 5756 5764 5771 5778 5782 5788 5794 5801 5808 5813 5817 5821 5825 5828 5831 5834 5837 5839 5841 5843 5845 5846 5847 5849 5849 5850 5851 5852 5852 5853 5853 5853 5853 5852 5852 5852 5851 5851 5850 5850 5849 5849
5700 5708 5714 5719 5726 5734 5742 5750 5757 5763 5768 5774 5783 5790 5796 5802 5807 5811 5815 5819 5823 5827 5830 5832 5834 5837 5838 5840 5841 5842 5844 5845 5845 5846 5847 5847 5848 5848 5848 5848 5848 5848 5847 5847 5846 5846 5845 5845 5844
5694 5699 5705 5711 5719 5728 5736 5743 5750 5757 5762 5769 5777 5784 5790 5796 5801 5805 5810 5814 5818 5821 5824 5827 5829 5831 5833 5835 5836 5837 5839 5840 5840 5841 5841 5842 5842 5842 5842 5842 5843 5842 5842 5842 5841 5840 5840 5840 5839
5684 5691 5697 5704 5713 5722 5729 5736 5745 5752 5757 5764 5772 5778 5784 5790 5795 5800 5804 5808 5812 5815 5819 5821 5824 5826 5828 5829 5831 5832 5833 5834 5835 5836 5836 5836 5837 5837 5837 5837 5837 5836 5836 5836 5835 5835 5834 5834 5833
5677 5683 5690 5699 5708 5715 5723 5732 5740 5744 5750 5758 5765 5771 5777 5783 5789 5794 5798 5803 5806 5810 5813 5815 5818 5820 5822 5823 5825 5826 5827 5828 5829 5830 5830 5830 5830 5830 5831 5830 5830 5830 5829 5829 5829 5828 5827 5827 5826
5669 5677 5687 5695 5702 5708 5716 5726 5733 5738 5745 5752 5759 5765 5771 5777 5783 5788 5792 5797 5800 5804 5807 5809 5812 5814 5816 5817 5818 5820 5821 5822 5823 5823 5824 5824 5824 5824 5824 5824 5823 5823 5822 5822 5822 5821 5820 5819 5819
5668 5677 5683 5689 5696 5703 5710 5720 5725 5731 5739 5746 5752 5759 5764 5770 5776 5781 5786 5791 5795 5798 5801 5803 5806 5808 5809 5811 5812 5814 5815 5815 5816 5816 5816 5817 5817 5816 5816 5816 5815 5815 5815 5814 5813 5812 5812 5811 5810
5664 5670 5677 5683 5689 5696 5704 5711 5718 5724 5732 5739 5746 5752 5758 5764 5769 5774 5780 5784 5788 5791 5794 5797 5799 5801 5803 5804 5806 5807 5808 5808 5809 5809 5809 5809 5809 5808 5808 5808 5807 5806 5806 5805 5804 5803 5803 5802 5801
5657 5664 5671 5677 5683 5691 5697 5704 5710 5717 5726 5733 5739 5745 5751 5757 5763 5768 5773 5777 5781 5785 5787 5790 5792 5794 5796 5797 5799 5800 5801 5801 5802 5802 5802 5801 5800 5799 5799 5799 5798 5797 5796 5796 5795 5794 5793 5792 5791
5654 5661 5667 5672 5679 5685 5691 5697 5704 5711 5719 5726 5732 5738 5744 5750 5755 5761 5766 5771 5774 5778 5780 5783 5785 5787 5788 5790 5791 5792 5793 5794 5794 5794 5794 5793 5792 5791 5790 5789 5788 5787 5787 5786 5785 5784 5783 5781 5780
5650 5657 5662 5668 5675 5680 5686 5692 5699 5705 5712 5719 5726 5731 5737 5743 5748 5754 5759 5763 5767 5770 5773 5775 5777 5779 5781 5782 5783 5784 5785 5786 5786 5786 5785 5784 5783 5782 5781 5780 5778 5777 5776 5775 5774 5772 5771 5770 5768
5647 5653 5659 5665 5670 5675 5680 5686 5692 5698 5705 5713 5719 5725 5730 5736 5741 5746 5751 5755 5759 5762 5765 5767 5769 5771 5773 5774 5775 5775 5776 5777 5777 5776 5776 5775 5774 5773 5771 5770 5768 5767 5765 5764 5762 5760 5759 5757 5756
5644 5650 5655 5659 5664 5670 5676 5681 5686 5693 5700 5707 5712 5718 5723 5729 5734 5738 5742 5746 5750 5753 5756 5759 5761 5763 5765 5766 5766 5767 5768 5768 5768 5767 5766 5765 5764 5763 5762 5760 5758 5756 5754 5752 5750 5748 5746 5744 5742
5641 5647 5652 5655 5659 5666 5671 5675 5681 5687 5694 5700 5706 5711 5716 5721 5726 5730 5734 5738 5742 5745 5748 5750 5753 5754 5756 5757 5758 5758 5759 5759 5758 5758 5757 5756 5755 5753 5752 5749 5747 5745 5743 5740 5737 5734 5732 5729 5727
5638 5644 5649 5653 5657 5663 5667 5670 5676 5682 5688 5694 5699 5704 5708 5713 5718 5722 5726 5730 5733 5736 5739 5742 5744 5746 5747 5748 5749 5749 5749 5749 5749 5748 5747 5746 5745 5743 5741 5739 5736 5734 5731 5727 5724 5720 5717 5714 5711
5635 5640 5645 5650 5654 5658 5662 5666 5671 5676 5682 5687 5692 5697 5701 5706 5710 5714 5718 5722 5725 5728 5730 5733 5735 5737 5738 5739 5740 5740 5740 5740 5740 5739 5738 5736 5735 5733 5730 5728 5725 5721 5717 5713 5709 5705 5701 5697 5695
5634 5638 5642 5646 5650 5654 5658 5662 5667 5672 5676 5680 5685 5690 5694 5699 5703 5707 5710 5713 5716 5719 5722 5724 5726 5728 5729 5730 5731 5731 5731 5731 5730 5729 5728 5726 5724 5722 5719 5716 5712 5708 5704 5699 5694 5689 5684 5680 5677
5632 5636 5639 5643 5647 5651 5654 5659 5662 5666 5670 5674 5678 5683 5687 5691 5695 5698 5702 5705 5708 5711 5713 5715 5717 5719 5720 5721 5721 5722 5721 5721 5720 5719 5718 5716 5713 5711 5708 5704 5700 5695 5689 5684 5679 5673 5668 5664 5660
5629 5633 5636 5641 5644 5647 5650 5656 5657 5661 5664 5668 5672 5676 5680 5683 5687 5691 5694 5697 5700 5703 5705 5707 5709 5710 5711 5712 5712 5712 5712 5711 5710 5709 5707 5705 5703 5700 5696 5692 5687 5682 5676 5671 5665 5659 5654 5649 5645